Flag for Germany Weather past 2 weeks in Garbsen, Lower Saxony, Germany

Now
66 °F

Passing clouds.


Feels Like: 66 °F
Forecast: 59 / 83 °F
Wind: 5 mph from Northeast

Location: Hannover

Current Time: Jun 30, 2015 at 11:53:01 PM

Latest Report: Jun 30, 2015 at 10:50 PM


Visibility: N/A

Pressure: 30.18 "Hg

Humidity: 60%

Dew point: 52 °F

Location of GarbsenLocation

Historic Weather in Garbsen — Graph

°F

Garbsen temperature yesterday

Maximum temperature yesterday: 79 °F (at 4:50 PM)
Minimum temperature yesterday: 59 °F (at 12:20 AM)
Average temperature yesterday: 69 °F

Past Weeks' High & Low Weather Summary

 TemperatureHumidityPressure
High79 °F (Jun 29, 4:50 PM)100% (Jun 18, 2:20 AM)30.27 "Hg (Jun 18, 2:20 AM)
Low39 °F (Jun 17, 3:20 AM)32% (Jun 16, 5:50 PM)29.65 "Hg (Jun 22, 9:20 PM)
Average59 °F76%30.04 "Hg
* Reported Jun 15 10:20 PM — Jun 30 10:20 PM, Garbsen, Weather by CustomWeather, © 2015

Note: Actual official high and low records may vary slightly from our data, if they occured in-between our weather recording intervals... More about our weather records

Advertising

Garbsen weather history for previous 24 hours

 ConditionsComfort  
Time TempWeatherWind HumidityBarometerVisibility
10:20 PM
Tue, Jun 30
66 °FSunny.6 mph60%30.18 "Hg10 mi
9:50 PM68 °FSunny.3 mph56%30.15 "Hg10 mi
9:20 PM72 °FSunny.5 mph50%30.15 "Hg10 mi
8:50 PM73 °FSunny.6 mph47%30.15 "Hg10 mi
8:20 PM75 °FSunny.5 mph44%30.15 "Hg10 mi
7:50 PM77 °FPassing clouds.6 mph42%30.15 "HgN/A
6:50 PM77 °FPassing clouds.5 mph36%30.15 "HgN/A
6:20 PM77 °FPassing clouds.6 mph36%30.15 "HgN/A
5:50 PM77 °FPassing clouds.7 mph36%30.15 "HgN/A
4:50 PM77 °FSunny.5 mph39%30.18 "Hg10 mi
4:20 PM77 °FSunny.7 mph36%30.18 "Hg10 mi
3:50 PM75 °FPassing clouds.7 mph39%30.18 "HgN/A
2:50 PM75 °FSunny.7 mph39%30.18 "Hg10 mi
2:20 PM75 °FPassing clouds.7 mph39%30.18 "HgN/A
1:50 PM73 °FSunny.5 mph44%30.21 "Hg10 mi
1:20 PM73 °FSunny.6 mph44%30.21 "Hg10 mi
12:50 PM72 °FPassing clouds.5 mph47%30.21 "HgN/A
12:20 PM72 °FPassing clouds.2 mph44%30.21 "HgN/A
11:50 AM72 °FPassing clouds.7 mph47%30.21 "HgN/A
11:20 AM70 °FPassing clouds.3 mph50%30.21 "HgN/A
10:50 AM70 °FPassing clouds.6 mph50%30.21 "HgN/A
10:20 AM68 °FSunny.3 mph53%30.21 "Hg10 mi
9:50 AM66 °FSunny.5 mph56%30.21 "Hg10 mi
9:20 AM66 °FPassing clouds.5 mph60%30.21 "HgN/A
8:50 AM64 °FSunny.2 mph64%30.21 "Hg10 mi
8:20 AM63 °FPassing clouds.3 mph73%30.21 "HgN/A
7:50 AM61 °FPassing clouds.3 mph77%30.21 "HgN/A
7:20 AM59 °FScattered clouds.2 mph82%30.21 "HgN/A
6:50 AM57 °FScattered clouds.2 mph88%30.21 "HgN/A
6:20 AM55 °FFog.1 mph94%30.21 "HgN/A
5:50 AM54 °FFog.1 mph100%30.18 "HgN/A
5:20 AM54 °FFog.2 mph100%30.18 "HgN/A
4:50 AM54 °FFog.3 mph100%30.18 "HgN/A
4:20 AM54 °FFog.2 mph100%30.18 "HgN/A
3:50 AM55 °FFog.3 mph94%30.18 "HgN/A
3:20 AM55 °FPassing clouds.2 mph94%30.18 "HgN/A
2:50 AM57 °FPassing clouds.1 mph94%30.18 "HgN/A
2:20 AM59 °FPartly cloudy.5 mph88%30.18 "HgN/A
1:50 AM57 °FPartly cloudy.6 mph94%30.18 "HgN/A
1:20 AM59 °FClear.3 mph88%30.18 "Hg10 mi
12:50 AM61 °FClear.5 mph83%30.18 "Hg10 mi
12:20 AM61 °FPassing clouds.3 mph88%30.18 "HgN/A
11:20 PM
Mon, Jun 29
63 °FClear.3 mph83%30.18 "Hg10 mi
Weather by CustomWeather, © 2015

See weather overviewHow to use our weather pages